EW6850 Weather Reports


time (UTC)temp
C
wind
direction
speed
KPH
gust
KPH
rain 1hr
cm
rain 24hr
cm
rain mn
cm
humidity
%
barometer
mb
20260507171601 32 244 8.0 22.5 0.00 0.00 0.00 62 1013.7
20260507170043 31 161 6.4 20.9 0.00 0.00 0.00 65 1013.8
20260507164547 31 219 6.4 14.5 0.00 0.00 0.00 64 1014.1
20260507163040 31 211 4.8 14.5 0.00 0.00 0.00 67 1014.2
20260507161540 30 238 9.7 16.1 0.00 0.00 0.00 68 1014.3
20260507160055 30 263 9.7 17.7 0.00 0.00 0.00 67 1014.5
20260507154536 30 245 6.4 17.7 0.00 0.00 0.00 67 1014.8
20260507153030 29 205 9.7 22.5 0.00 0.00 0.00 69 1015.0
20260507151529 28 260 8.0 16.1 0.00 0.00 0.00 69 1014.9
20260507150026 28 250 6.4 17.7 0.00 0.00 0.00 71 1015.0
20260507144524 28 202 4.8 14.5 0.00 0.00 0.00 74 1015.1
20260507143025 27 229 8.0 16.1 0.00 0.00 0.00 76 1015.1
20260507141521 27 211 8.0 20.9 0.00 0.00 0.00 76 1015.1
20260507140032 27 213 6.4 17.7 0.00 0.00 0.00 75 1015.1
20260507134515 27 197 4.8 14.5 0.00 0.00 0.00 75 1015.1
20260507133012 26 217 4.8 12.9 0.00 0.00 0.00 77 1015.3
20260507131508 25 187 4.8 16.1 0.00 0.00 0.00 81 1015.1
20260507130005 25 229 6.4 12.9 0.00 0.00 0.00 82 1015.1
20260507124504 24 213 4.8 14.5 0.00 0.00 0.00 82 1015.3
20260507123004 23 205 4.8 11.3 0.00 0.00 0.00 84 1015.4
20260507121503 23 136 1.6 9.7 0.00 0.00 0.00 86 1015.4
20260507120100 22 202 6.4 11.3 0.00 0.00 0.00 87 1015.2
20260507114559 22 205 3.2 11.3 0.00 0.00 0.00 89 1015.0
20260507113133 21 215 1.6 8.0 0.00 0.00 0.00 90 1015.1
20260507111559 21 220 1.6 4.8 0.00 0.00 0.00 91 1015.1
20260507110058 21 198 1.6 6.4 0.00 0.00 0.00 91 1014.8
20260507104611 21 238 1.6 8.0 0.00 0.00 0.00 91 1014.6
20260507103055 21 209 0.0 8.0 0.00 0.00 0.00 90 1014.5
20260507101556 21 247 1.6 9.7 0.00 0.00 0.00 90 1014.5
20260507100059 21 230 0.0 8.0 0.00 0.00 0.00 90 1014.2
20260507094604 21 214 0.0 6.4 0.00 0.00 0.00 90 1013.7
20260507093053 21 225 0.0 3.2 0.00 0.00 0.00 89 1013.6
20260507091553 21 194 1.6 8.0 0.00 0.00 0.00 89 1013.6
20260507090051 21 218 3.2 6.4 0.00 0.00 0.00 89 1013.7
20260507084558 21 229 0.0 3.2 0.00 0.00 0.00 89 1013.7
20260507083052 21 219 0.0 6.4 0.00 0.00 0.00 90 1013.6
20260507081549 21 236 0.0 0.0 0.00 0.00 0.00 89 1013.5
20260507080051 21 236 0.0 0.0 0.00 0.00 0.00 88 1013.6
20260507074547 21 221 0.0 6.4 0.00 0.00 0.00 89 1013.5
20260507073043 21 235 1.6 3.2 0.00 0.00 0.00 89 1013.7
20260507071544 21 249 0.0 1.6 0.00 0.00 0.00 89 1013.9
20260507070052 22 277 0.0 8.0 0.00 0.00 0.00 89 1014.0
20260507064544 21 218 0.0 0.0 0.00 0.00 0.00 88 1014.1
20260507063038 22 220 0.0 1.6 0.00 0.00 0.00 88 1014.3
20260507061538 22 135 0.0 1.6 0.00 0.00 0.00 88 1014.4
20260507060040 22 192 0.0 0.0 0.00 0.00 0.00 87 1014.6
20260507054538 22 278 0.0 3.2 0.00 0.00 0.00 87 1014.7
20260507053030 22 227 0.0 8.0 0.00 0.00 0.00 86 1014.7
20260507051525 23 262 1.6 9.7 0.00 0.00 0.00 84 1014.9
20260507050046 25 135 4.8 17.7 0.00 0.00 0.00 82 1015.1
20260507044523 25 136 3.2 14.5 0.00 0.00 0.00 81 1014.7
20260507043017 25 138 6.4 16.1 0.00 0.00 0.00 82 1014.7
20260507041515 25 122 4.8 14.5 0.00 0.00 0.00 83 1014.5
20260507040014 25 106 6.4 17.7 0.00 0.00 0.00 82 1014.7
20260507034512 25 145 1.6 12.9 0.00 0.00 0.00 82 1014.9
20260507033016 25 104 4.8 14.5 0.00 0.00 0.00 82 1015.0
20260507031510 25 132 6.4 16.1 0.00 0.00 0.00 82 1014.8
20260507030010 25 101 4.8 16.1 0.00 0.00 0.00 81 1014.7
20260507024515 25 103 8.0 17.7 0.00 0.00 0.00 81 1014.7
20260507023009 25 128 4.8 12.9 0.00 0.00 0.00 80 1014.9
20260507021517 25 106 6.4 14.5 0.00 0.00 0.00 79 1014.8
20260507020010 25 70 4.8 16.1 0.00 0.00 0.00 78 1014.8
20260507014507 25 107 4.8 12.9 0.00 0.00 0.00 78 1014.9
20260507013009 25 222 1.6 11.3 0.00 0.00 0.00 78 1015.0
20260507011514 25 123 4.8 12.9 0.00 0.00 0.00 77 1014.9
20260507010010 25 104 1.6 12.9 0.00 0.00 0.00 77 1014.8
20260507004505 25 78 3.2 14.5 0.00 0.00 0.00 76 1014.6
20260507003005 26 84 3.2 11.3 0.00 0.00 0.00 74 1014.6
20260507001505 26 122 8.0 16.1 0.00 0.00 0.00 70 1014.3
20260507000004 26 97 4.8 12.9 0.00 0.00 0.00 68 1014.4
20260506234504 26 123 4.8 20.9 0.00 0.00 0.00 64 1014.5
20260506233004 27 120 4.8 17.7 0.00 0.00 0.00 61 1014.4
20260506231503 27 134 3.2 16.1 0.00 0.00 0.00 63 1014.5
20260506230002 27 132 4.8 19.3 0.00 0.00 0.00 63 1014.5
20260506224501 28 118 9.7 16.1 0.00 0.00 0.00 64 1014.4
20260506223002 28 74 4.8 16.1 0.00 0.00 0.00 66 1014.6
20260506221600 28 130 6.4 17.7 0.00 0.00 0.00 65 1014.6
20260506214559 28 131 11.3 22.5 0.00 0.00 0.00 64 1014.6
20260506213059 28 105 9.7 20.9 0.00 0.00 0.00 65 1014.6
20260506211558 28 118 11.3 22.5 0.00 0.00 0.00 64 1014.5
20260506210057 29 107 9.7 20.9 0.00 0.00 0.00 65 1014.5
20260506204601 29 141 9.7 17.7 0.00 0.00 0.00 62 1014.7
20260506203056 29 124 9.7 17.7 0.00 0.00 0.00 63 1014.6
20260506201558 29 155 9.7 17.7 0.00 0.00 0.00 61 1014.8
20260506200110 29 100 9.7 20.9 0.00 0.00 0.00 64 1014.8
20260506194614 29 124 9.7 17.7 0.00 0.00 0.00 62 1014.9
20260506193055 29 103 9.7 22.5 0.00 0.00 0.00 64 1014.9
20260506191553 30 86 8.0 19.3 0.00 0.00 0.00 63 1015.1
20260506190053 30 76 8.0 19.3 0.00 0.00 0.00 63 1015.4
20260506184557 30 80 9.7 17.7 0.00 0.00 0.00 63 1015.5
20260506183102 30 90 9.7 19.3 0.00 0.00 0.00 60 1015.6
20260506181558 30 92 9.7 17.7 0.00 0.00 0.00 61 1015.7
20260506180050 29 86 11.3 20.9 0.00 0.00 0.00 64 1015.8
20260506174547 30 115 9.7 16.1 0.00 0.00 0.00 61 1016.0
20260506173054 29 84 8.0 19.3 0.00 0.00 0.00 66 1016.1